TimeEDT,TemperatureF,Dew PointF,Humidity,Sea Level PressureIn,VisibilityMPH,Wind Direction,Wind SpeedMPH,Gust SpeedMPH,PrecipitationIn,Events,Conditions,WindDirDegrees,DateUTC
12:54 AM,59.0,59.0,100,30.08,7.0,Calm,Calm,-,N/A,,Scattered Clouds,0,2013-09-16 04:54:00
1:44 AM,59.0,59.0,100,30.10,7.0,Calm,Calm,-,N/A,,Mostly Cloudy,0,2013-09-16 05:44:00
1:54 AM,60.1,60.1,100,30.09,7.0,Calm,Calm,-,N/A,,Mostly Cloudy,0,2013-09-16 05:54:00
2:54 AM,60.1,60.1,100,30.09,7.0,Calm,Calm,-,N/A,,Scattered Clouds,0,2013-09-16 06:54:00
3:54 AM,60.1,60.1,100,30.08,10.0,Calm,Calm,-,N/A,,Mostly Cloudy,0,2013-09-16 07:54:00
4:54 AM,61.0,61.0,100,30.08,10.0,NW,4.6,-,N/A,,Mostly Cloudy,320,2013-09-16 08:54:00
5:44 AM,64.4,60.8,88,30.14,10.0,NW,4.6,-,0.00,Rain,Light Rain,320,2013-09-16 09:44:00
5:54 AM,64.0,61.0,90,30.12,10.0,North,4.6,-,0.00,Rain,Light Rain,350,2013-09-16 09:54:00
6:54 AM,62.1,62.1,100,30.15,10.0,NNW,5.8,-,0.02,,Overcast,330,2013-09-16 10:54:00
7:37 AM,62.6,60.8,94,30.17,10.0,East,4.6,-,0.00,Rain,Light Rain,80,2013-09-16 11:37:00
7:54 AM,61.0,60.1,97,30.16,8.0,ESE,3.5,-,0.00,,Overcast,120,2013-09-16 11:54:00
8:54 AM,62.1,60.1,93,30.16,6.0,Calm,Calm,-,0.00,Rain,Light Rain,0,2013-09-16 12:54:00
9:54 AM,62.1,61.0,96,30.19,6.0,Calm,Calm,-,0.00,,Overcast,0,2013-09-16 13:54:00
10:33 AM,64.4,60.8,88,30.20,6.0,Calm,Calm,-,N/A,,Overcast,0,2013-09-16 14:33:00
10:54 AM,64.0,61.0,90,30.20,8.0,Calm,Calm,-,N/A,,Overcast,0,2013-09-16 14:54:00
11:13 AM,64.4,60.8,88,30.21,10.0,NNE,3.5,-,N/A,,Overcast,20,2013-09-16 15:13:00
11:54 AM,64.9,59.0,81,30.21,10.0,NNE,3.5,-,N/A,,Overcast,20,2013-09-16 15:54:00
12:17 PM,64.4,59.0,83,30.22,10.0,NE,3.5,-,N/A,,Overcast,50,2013-09-16 16:17:00
12:54 PM,66.9,59.0,76,30.21,10.0,Calm,Calm,-,N/A,,Overcast,0,2013-09-16 16:54:00
1:54 PM,68.0,59.0,73,30.21,10.0,North,5.8,-,N/A,,Overcast,360,2013-09-16 17:54:00
2:54 PM,69.1,57.0,65,30.20,10.0,Variable,3.5,-,N/A,,Mostly Cloudy,0,2013-09-16 18:54:00
3:12 PM,68.0,59.0,73,30.21,10.0,NNW,5.8,-,N/A,,Overcast,330,2013-09-16 19:12:00
3:54 PM,68.0,57.0,68,30.19,10.0,North,9.2,-,N/A,,Overcast,10,2013-09-16 19:54:00
4:54 PM,69.1,57.0,65,30.19,10.0,Variable,3.5,-,N/A,,Mostly Cloudy,0,2013-09-16 20:54:00
5:54 PM,68.0,57.0,68,30.20,10.0,NNE,5.8,-,N/A,,Mostly Cloudy,30,2013-09-16 21:54:00
6:54 PM,68.0,55.9,65,30.20,10.0,North,6.9,-,N/A,,Scattered Clouds,10,2013-09-16 22:54:00
7:54 PM,62.1,57.0,84,30.21,10.0,NE,3.5,-,N/A,,Partly Cloudy,40,2013-09-16 23:54:00
8:54 PM,59.0,57.9,96,30.23,10.0,Calm,Calm,-,N/A,,Clear,0,2013-09-17 00:54:00
9:54 PM,57.9,57.9,100,30.25,7.0,Calm,Calm,-,N/A,,Clear,0,2013-09-17 01:54:00
10:54 PM,55.0,55.0,100,30.25,7.0,Calm,Calm,-,N/A,,Clear,0,2013-09-17 02:54:00
11:08 PM,55.4,55.4,100,30.27,0.2,Calm,Calm,-,N/A,Fog,Fog,0,2013-09-17 03:08:00
11:18 PM,55.4,55.4,100,30.27,0.2,Calm,Calm,-,N/A,Fog,Fog,0,2013-09-17 03:18:00
11:28 PM,55.4,55.4,100,30.27,0.8,Calm,Calm,-,N/A,,Mostly Cloudy,0,2013-09-17 03:28:00
11:54 PM,55.0,55.0,100,30.27,0.8,Calm,Calm,-,N/A,,Mostly Cloudy,0,2013-09-17 03:54:00